Regional Weather Roundup
Issued by NWS

Home | Current Version | Previous Version | Graphics & Text | Print | Product List | Glossary On
Versions: 1 2 3 4 5 6 7 8 9 10 11 12 13 14 15 16 17 18 19 20 21 22 23 24 25 26 27 28 29 30 31 32 33 34 35 36 37 38 39 40 41 42 43 44 45 46 47 48 49 50
000
ASUS43 KFSD 050710
RWRSD

WEATHER ROUNDUP FOR SOUTH DAKOTA
NATIONAL WEATHER SERVICE SIOUX FALLS SD
200 AM CDT WED AUG 05 2015

NOTE: "FAIR" INDICATES FEW OR NO CLOUDS BELOW 12,000 FEET WITH NO
SIGNIFICANT WEATHER AND/OR OBSTRUCTIONS TO VISIBILITY.


SDZ001>005-009-010-012>017-050800-
NORTHWEST AND NORTH CENTRAL SOUTH DAKOTA

CITY           SKY/WX    TMP DP  RH WIND       PRES   REMARKS
BUFFALO          N/A     63  60  90 CALM      29.95S
FAITH            N/A     69  58  67 SE13      29.98S
MOBRIDGE       MOCLDY    69  63  81 SE10      29.96F
$$

SDZ012>016-024>037-041>051-057-063-072>074-050800-
SOUTHWEST AND SOUTH CENTRAL SOUTH DAKOTA

CITY           SKY/WX    TMP DP  RH WIND       PRES   REMARKS
RAPID CTY ARPT CLOUDY    65  61  87 CALM      30.01S
PIERRE         MOCLDY    68  62  81 SE8       29.98R
CUSTER         CLOUDY    60  53  77 W3        30.15R
ELLSWORTH AFB  CLOUDY    66  59  79 SW5       30.01S
PHILIP         MOCLDY    68  65  90 CALM      29.97F
PINE RIDGE     MOCLDY    67  59  75 SW7       30.03F
WINNER         FAIR      67  64  90 SE6       30.00S
$$

SDZ004>011-016>023-039-040-050800-
NORTHEAST SOUTH DAKOTA

CITY           SKY/WX    TMP DP  RH WIND       PRES   REMARKS
ABERDEEN       PTCLDY    60  56  86 SE6       30.02S
WATERTOWN      PTCLDY    64  54  69 SE5       30.04S
BROOKINGS      MOCLDY    63  55  77 SE7       30.06S
SISSETON         N/A     53  52  96 CALM      30.03S
$$

SDZ017-020-022-023-036>040-048>070-050800-
SOUTHEAST SOUTH DAKOTA

CITY           SKY/WX    TMP DP  RH WIND       PRES   REMARKS
SIOUX FALLS    MOCLDY    67  58  72 E8        30.03S
HURON          MOCLDY   N/A N/A N/A SE7       30.01S
CHAMBERLAIN    CLOUDY    65  63  94 SE7       29.99F
MITCHELL       MOCLDY    64  62  93 E6        30.01S
YANKTON        CLOUDY    66  63  88 E3        29.98S
$$

ABBREVIATIONS USED IN REMARKS
   TC - TEMPERATURE IN CELSIUS
  WCI - WIND CHILL INDEX
   HX - HEAT INDEX
  VSB - VISIBILITY




USA.gov is the U.S. government's official web portal to all federal, state and local government web resources and services.